Home > Weather > Cairns > Past weeks

Flag for Australia Weather for the Past 2 Weeks in Cairns, Queensland, Australia

Now
77 °F

Passing clouds.


Feels Like: 78 °F
Forecast: 77 / 89 °F
Wind: 7 mph from South

Location: Cairns Airport

Current Time: Feb 12, 2016 at 5:16:03 AM

Latest Report: Feb 12, 2016 at 5:00 AM


Visibility: N/A

Pressure: 29.77 "Hg

Humidity: 83%

Dew point: 72 °F

Location of CairnsLocation

Historic Weather in Cairns — Graph

°F

Cairns Temperature Yesterday

Maximum temperature yesterday: 90 °F (at 11:30 AM)
Minimum temperature yesterday: 75 °F (at 5:30 AM)
Average temperature yesterday: 81 °F

High & Low Weather Summary for the Past Weeks

 TemperatureHumidityPressure
High93 °F (Feb 6, 11:00 AM)100% (Jan 28, 4:00 AM)29.86 "Hg (Jan 28, 4:00 AM)
Low75 °F (Feb 9, 4:00 AM)59% (Feb 4, 11:00 AM)29.53 "Hg (Feb 5, 3:30 PM)
Average84 °F82%29.72 "Hg
* Reported Jan 28 4:00 AM — Feb 12 4:00 AM, Cairns, Weather by CustomWeather, © 2016

Note: Actual official high and low records may vary slightly from our data, if they occured in-between our weather recording intervals... More about our weather records

Advertising

Cairns Weather History for the Previous 24 Hours

 ConditionsComfort  
Time TempWeatherWind HumidityBarometerVisibility
4:00 AM
Fri, Feb 12
79 °FPassing clouds.6 mph79%29.74 "HgN/A
3:00 AM79 °FPassing clouds.8 mph79%29.74 "HgN/A
2:30 AM79 °FPassing clouds.3 mph79%29.74 "HgN/A
2:00 AM79 °FPassing clouds.5 mph84%29.74 "HgN/A
1:30 AM79 °FPassing clouds.7 mph79%29.77 "HgN/A
1:00 AM79 °FPassing clouds.8 mph79%29.77 "HgN/A
12:30 AM79 °FPassing clouds.6 mph79%29.77 "HgN/A
12:00 AM79 °FPassing clouds.7 mph79%29.77 "HgN/A
11:30 PM
Thu, Feb 11
81 °FPassing clouds.5 mph74%29.80 "HgN/A
11:00 PM79 °FPassing clouds.8 mph79%29.80 "HgN/A
10:30 PM81 °FPassing clouds.7 mph74%29.80 "HgN/A
10:00 PM81 °FPassing clouds.6 mph74%29.80 "HgN/A
9:30 PM81 °FPassing clouds.7 mph70%29.80 "HgN/A
9:00 PM81 °FPassing clouds.6 mph74%29.80 "HgN/A
8:30 PM81 °FPassing clouds.6 mph74%29.80 "HgN/A
8:00 PM81 °FOvercast.3 mph74%29.77 "HgN/A
7:30 PM81 °FOvercast.5 mph74%29.77 "HgN/A
7:00 PM81 °FPartly cloudy.6 mph74%29.77 "HgN/A
6:30 PM81 °FBroken clouds.7 mph74%29.74 "HgN/A
6:00 PM81 °FBroken clouds.8 mph74%29.74 "HgN/A
5:30 PM81 °FBroken clouds.7 mph74%29.74 "HgN/A
5:00 PM82 °FBroken clouds.7 mph70%29.71 "HgN/A
4:30 PM82 °FScattered showers. Broken clouds.9 mph74%29.71 "HgN/A
4:00 PM84 °FScattered showers. Broken clouds.21 mph66%29.71 "HgN/A
3:30 PM84 °FScattered showers. Partly sunny.17 mph70%29.71 "HgN/A
3:00 PM88 °FPartly sunny.14 mph59%29.71 "HgN/A
2:30 PM84 °FScattered showers. Partly sunny.12 mph70%29.71 "HgN/A
2:00 PM86 °FPartly sunny.15 mph62%29.71 "HgN/A
1:30 PM90 °FScattered clouds.18 mph63%29.71 "HgN/A
1:00 PM90 °FScattered clouds.15 mph59%29.74 "HgN/A
12:30 PM90 °FScattered clouds.10 mph63%29.74 "HgN/A
12:00 PM90 °FScattered clouds.15 mph59%29.74 "HgN/A
11:30 AM90 °FPassing clouds.12 mph59%29.77 "HgN/A
11:00 AM88 °FPassing clouds.13 mph59%29.77 "HgN/A
10:00 AM88 °FPassing clouds.13 mph66%29.77 "HgN/A
9:00 AM84 °FPassing clouds.9 mph70%29.80 "HgN/A
8:30 AM84 °FPassing clouds.9 mph70%29.80 "HgN/A
7:30 AM79 °FPassing clouds.9 mph89%29.77 "HgN/A
7:00 AM79 °FScattered clouds.1 mph84%29.77 "HgN/A
6:30 AM75 °FScattered clouds.No wind94%29.77 "HgN/A
6:00 AM75 °FPassing clouds.5 mph94%29.74 "HgN/A
5:30 AM75 °FPassing clouds.2 mph94%29.74 "HgN/A
5:00 AM77 °FSprinkles. Passing clouds.6 mph89%29.74 "HgN/A
Weather by CustomWeather, © 2016

See weather overviewHow to use our weather pages